Content
SEND FEEDBACK

Daily
Averages
Monthly
Summary
United States of America

SANTA CRUZ, CALIFORNIA


Home > North America > United States > California
Elevation: 13 feet     Latitude: 36 58N     Longitude: 122 01W

WEATHER
 
SELECT A DAY
Number of Records: 22,918;   Date Range: 9/2/12 - 10/20/14
 
SHARE

PRINT THIS DATA

[ ← Previous Day ]
WEATHER ALMANAC - JANUARY 31, 2013
[ Next Day → ]
[ °C ]   °F
Weather ElementAverageHighLow
Temperature52 °F69.1 °F (1:53 pm)39 °F (4:53 am)
Dewpoint40.7 °F45 °F (6:53 pm)36 °F (5:53 am)
Humidity68.6 %93 % (3:53 am)38 % (1:53 pm)
Barometer30.22 in30.28 in (1:53 am)30.17 in (3:53 pm)
Wind Speed2.4 mph8.1 mph (1:53 pm)
Weather ElementAverage
Visibility10 mi
Wind DirectionESE (103.2 °)

Weather ElementTotal
Precipitation---
Heating Degree Days11 (Base 65)
Growing Degree Days4.1 (Base 50)
Averaged from 22 records on January 31, 2013
WEATHER CONDITIONS BREAKOUT
WIND DIRECTION BREAKOUT
WEATHER BY HOUR - JANUARY 31, 2013
[ °C ]   °F
Local TimeTemperatureDewpointHumidityBarometerVisibilityWind DirectionWind SpeedGust SpeedPrecipitationEventsConditions
1:53 AM42.1 °F37.9 °F85 %30.28 in10.0 miCalmClear
2:53 AM41.0 °F37.9 °F89 %30.27 in10.0 miCalmClear
3:53 AM41.0 °F39.0 °F93 %30.26 in10.0 miWNW (290°)3.5 mphClear
4:53 AM39.0 °F37.0 °F93 %30.25 in10.0 miCalmClear
5:53 AM39.0 °F36.0 °F89 %30.25 in10.0 miCalmClear
6:53 AM39.9 °F36.0 °F86 %30.26 in10.0 miCalmClear
7:53 AM41.0 °F37.9 °F89 %30.27 in10.0 miCalmClear
8:53 AM46.9 °F39.0 °F74 %30.27 in10.0 miENE (70°)5.8 mphClear
9:53 AM52.0 °F41.0 °F66 %30.27 in10.0 miEast (90°)3.5 mphClear
10:53 AM59.0 °F41.0 °F51 %30.26 in10.0 miCalmClear
11:53 AM63.0 °F39.0 °F41 %30.25 in10.0 miEast (100°)3.5 mphClear
12:53 PM66.0 °F42.1 °F42 %30.22 in10.0 miCalmClear
1:53 PM69.1 °F42.1 °F38 %30.19 in10.0 miESE (120°)8.1 mphClear
2:53 PM68.0 °F42.1 °F39 %30.18 in10.0 miSouth (170°)5.8 mphClear
3:53 PM66.0 °F44.1 °F45 %30.17 in10.0 miWSW (250°)4.6 mphClear
4:53 PM63.0 °F43.0 °F48 %30.17 in10.0 miWest (260°)4.6 mphClear
5:53 PM57.0 °F43.0 °F59 %30.17 in10.0 miCalmClear
6:53 PM55.0 °F45.0 °F69 %30.18 in10.0 miCalmClear
7:53 PM51.1 °F44.1 °F77 %30.19 in10.0 miNW (320°)3.5 mphClear
8:53 PM50.0 °F43.0 °F77 %30.19 in10.0 miNW (310°)3.5 mphClear
9:53 PM48.9 °F42.1 °F77 %30.19 in10.0 miCalmClear
10:53 PM46.9 °F42.1 °F83 %30.18 in10.0 miWNW (290°)5.8 mphClear
Hourly data recorded from KWVI, located miles away from Santa Cruz, California







STORIES FROM OUR PARTNERS